| time (UTC) | temp C | wind direction | speed KPH | gust KPH | rain 1hr cm | rain 24hr cm | rain mn cm | humidity % | barometer mb |
| 20260506051324 | 25 | 135 | 4.8 | 11.3 | 0.00 | 0.00 | 0.00 | 90 | 1009.4 |
| 20260506050328 | 25 | 151 | 3.2 | 8.0 | 0.00 | 0.00 | 0.00 | 89 | 1009.6 |
| 20260506044325 | 25 | 112 | 1.6 | 9.7 | 0.00 | 0.00 | 0.00 | 89 | 1009.5 |
| 20260506043329 | 25 | 142 | 3.2 | 11.3 | 0.00 | 0.00 | 0.00 | 89 | 1009.3 |
| 20260506042336 | 25 | 121 | 4.8 | 9.7 | 0.00 | 0.00 | 0.00 | 88 | 1009.4 |
| 20260506041323 | 25 | 137 | 3.2 | 8.0 | 0.00 | 0.00 | 0.00 | 88 | 1009.4 |
| 20260506040330 | 25 | 146 | 3.2 | 8.0 | 0.00 | 0.00 | 0.00 | 88 | 1009.3 |
| 20260506035322 | 25 | 141 | 3.2 | 8.0 | 0.00 | 0.00 | 0.00 | 87 | 1009.2 |
| 20260506034330 | 25 | 142 | 3.2 | 8.0 | 0.00 | 0.00 | 0.00 | 87 | 1009.1 |
| 20260506033338 | 25 | 160 | 1.6 | 4.8 | 0.00 | 0.00 | 0.00 | 87 | 1009.0 |
| 20260506032327 | 25 | 141 | 0.0 | 9.7 | 0.00 | 0.00 | 0.00 | 87 | 1009.1 |
| 20260506031336 | 25 | 139 | 3.2 | 8.0 | 0.00 | 0.00 | 0.00 | 87 | 1008.9 |
| 20260506030342 | 25 | 135 | 3.2 | 6.4 | 0.00 | 0.00 | 0.00 | 87 | 1008.7 |
| 20260506025351 | 25 | 135 | 1.6 | 8.0 | 0.00 | 0.00 | 0.00 | 87 | 1008.5 |
| 20260506024323 | 25 | 146 | 4.8 | 11.3 | 0.00 | 0.00 | 0.00 | 86 | 1008.4 |
| 20260506023328 | 26 | 188 | 4.8 | 12.9 | 0.00 | 0.00 | 0.00 | 86 | 1008.3 |
| 20260506022336 | 26 | 136 | 4.8 | 8.0 | 0.00 | 0.00 | 0.00 | 86 | 1008.1 |
| 20260506021324 | 26 | 136 | 3.2 | 12.9 | 0.00 | 0.00 | 0.00 | 85 | 1007.9 |
| 20260506020329 | 26 | 131 | 3.2 | 11.3 | 0.00 | 0.00 | 0.00 | 85 | 1007.9 |
| 20260506015336 | 26 | 150 | 3.2 | 8.0 | 0.00 | 0.00 | 0.00 | 85 | 1007.8 |
| 20260506014343 | 26 | 149 | 1.6 | 8.0 | 0.00 | 0.00 | 0.00 | 84 | 1007.7 |
| 20260506013348 | 26 | 145 | 3.2 | 9.7 | 0.00 | 0.00 | 0.00 | 84 | 1007.5 |
| 20260506012339 | 26 | 135 | 1.6 | 11.3 | 0.00 | 0.00 | 0.00 | 83 | 1007.4 |
| 20260506011324 | 26 | 143 | 3.2 | 8.0 | 0.00 | 0.00 | 0.00 | 82 | 1007.3 |
| 20260506010327 | 26 | 144 | 3.2 | 11.3 | 0.00 | 0.00 | 0.00 | 82 | 1007.1 |
| 20260506005333 | 26 | 143 | 3.2 | 11.3 | 0.00 | 0.00 | 0.00 | 82 | 1006.9 |
| 20260506004401 | 26 | 137 | 3.2 | 11.3 | 0.00 | 0.00 | 0.00 | 81 | 1006.8 |
| 20260506003342 | 26 | 148 | 3.2 | 8.0 | 0.00 | 0.00 | 0.00 | 81 | 1006.8 |
| 20260506002328 | 26 | 135 | 4.8 | 11.3 | 0.00 | 0.00 | 0.00 | 79 | 1006.9 |
| 20260506001335 | 27 | 141 | 3.2 | 14.5 | 0.00 | 0.00 | 0.00 | 79 | 1006.7 |
| 20260506000341 | 27 | 135 | 4.8 | 9.7 | 0.00 | 0.00 | 0.00 | 80 | 1006.7 |
| 20260505235328 | 27 | 142 | 3.2 | 12.9 | 0.00 | 0.00 | 0.00 | 80 | 1006.8 |
| 20260505234335 | 27 | 166 | 6.4 | 16.1 | 0.00 | 0.00 | 0.00 | 79 | 1006.7 |
| 20260505233337 | 27 | 143 | 4.8 | 9.7 | 0.00 | 0.00 | 0.00 | 79 | 1006.7 |
| 20260505232345 | 27 | 152 | 4.8 | 11.3 | 0.00 | 0.00 | 0.00 | 78 | 1006.6 |
| 20260505231332 | 27 | 180 | 3.2 | 17.7 | 0.00 | 0.00 | 0.00 | 79 | 1006.6 |
| 20260505230335 | 27 | 142 | 4.8 | 20.9 | 0.00 | 0.00 | 0.00 | 78 | 1006.6 |
| 20260505225326 | 27 | 155 | 8.0 | 12.9 | 0.00 | 0.00 | 0.00 | 77 | 1006.5 |
| 20260505224334 | 27 | 192 | 4.8 | 19.3 | 0.00 | 0.00 | 0.00 | 77 | 1006.6 |
| 20260505223338 | 27 | 182 | 6.4 | 14.5 | 0.00 | 0.00 | 0.00 | 78 | 1006.6 |
| 20260505222325 | 28 | 167 | 6.4 | 19.3 | 0.00 | 0.00 | 0.00 | 77 | 1006.6 |
| 20260505221353 | 28 | 167 | 4.8 | 16.1 | 0.00 | 0.00 | 0.00 | 77 | 1006.6 |
| 20260505220355 | 28 | 167 | 4.8 | 17.7 | 0.00 | 0.00 | 0.00 | 77 | 1006.7 |
| 20260505215400 | 27 | 158 | 8.0 | 14.5 | 0.00 | 0.00 | 0.00 | 77 | 1006.9 |
| 20260505214325 | 28 | 169 | 4.8 | 16.1 | 0.00 | 0.00 | 0.00 | 78 | 1007.1 |
| 20260505213350 | 28 | 145 | 6.4 | 16.1 | 0.00 | 0.00 | 0.00 | 77 | 1007.2 |
| 20260505212338 | 28 | 194 | 4.8 | 17.7 | 0.00 | 0.00 | 0.00 | 77 | 1007.4 |
| 20260505211325 | 28 | 193 | 6.4 | 17.7 | 0.00 | 0.00 | 0.00 | 78 | 1007.5 |
| 20260505210326 | 28 | 163 | 8.0 | 17.7 | 0.00 | 0.00 | 0.00 | 77 | 1007.7 |
| 20260505205334 | 28 | 154 | 4.8 | 12.9 | 0.00 | 0.00 | 0.00 | 78 | 1007.8 |
| 20260505204342 | 28 | 180 | 3.2 | 9.7 | 0.00 | 0.00 | 0.00 | 79 | 1007.9 |
| 20260505203323 | 28 | 185 | 4.8 | 14.5 | 0.00 | 0.00 | 0.00 | 78 | 1008.1 |
| 20260505202333 | 28 | 171 | 6.4 | 16.1 | 0.00 | 0.00 | 0.00 | 77 | 1008.2 |
| 20260505201339 | 28 | 153 | 6.4 | 19.3 | 0.00 | 0.00 | 0.00 | 78 | 1008.2 |
| 20260505200342 | 27 | 167 | 6.4 | 12.9 | 0.00 | 0.00 | 0.00 | 80 | 1008.3 |
| 20260505195327 | 27 | 175 | 6.4 | 11.3 | 0.00 | 0.00 | 0.00 | 82 | 1008.6 |
| 20260505194334 | 27 | 129 | 6.4 | 12.9 | 0.00 | 0.00 | 0.00 | 81 | 1008.7 |
| 20260505193340 | 27 | 158 | 3.2 | 14.5 | 0.00 | 0.00 | 0.00 | 80 | 1008.8 |
| 20260505192328 | 27 | 152 | 3.2 | 14.5 | 0.00 | 0.00 | 0.00 | 81 | 1008.9 |
| 20260505191340 | 27 | 155 | 4.8 | 9.7 | 0.00 | 0.00 | 0.00 | 81 | 1008.9 |
| 20260505190401 | 27 | 198 | 3.2 | 11.3 | 0.00 | 0.00 | 0.00 | 81 | 1009.0 |
| 20260505185329 | 27 | 175 | 8.0 | 14.5 | 0.00 | 0.00 | 0.00 | 80 | 1009.0 |
| 20260505184335 | 27 | 187 | 4.8 | 24.1 | 0.00 | 0.00 | 0.00 | 82 | 1009.0 |
| 20260505183336 | 27 | 153 | 4.8 | 11.3 | 0.00 | 0.00 | 0.00 | 82 | 1009.1 |
| 20260505182343 | 26 | 169 | 6.4 | 19.3 | 0.00 | 0.00 | 0.00 | 82 | 1009.1 |
| 20260505181326 | 27 | 169 | 4.8 | 19.3 | 0.00 | 0.00 | 0.00 | 82 | 1009.2 |
| 20260505180346 | 26 | 187 | 4.8 | 12.9 | 0.00 | 0.00 | 0.00 | 82 | 1009.4 |
| 20260505175351 | 26 | 171 | 4.8 | 16.1 | 0.00 | 0.00 | 0.00 | 83 | 1009.6 |
| 20260505174343 | 26 | 167 | 4.8 | 11.3 | 0.00 | 0.00 | 0.00 | 83 | 1009.7 |
| 20260505173324 | 26 | 138 | 3.2 | 14.5 | 0.00 | 0.00 | 0.00 | 84 | 1009.7 |
| 20260505172332 | 26 | 108 | 4.8 | 14.5 | 0.00 | 0.00 | 0.00 | 83 | 1009.7 |
| 20260505171357 | 26 | 159 | 3.2 | 8.0 | 0.00 | 0.00 | 0.00 | 84 | 1009.7 |
| 20260505170339 | 26 | 190 | 4.8 | 14.5 | 0.00 | 0.00 | 0.00 | 84 | 1009.7 |
| 20260505165325 | 26 | 244 | 6.4 | 14.5 | 0.00 | 0.00 | 0.00 | 85 | 1009.8 |
| 20260505164333 | 26 | 184 | 4.8 | 20.9 | 0.00 | 0.00 | 0.00 | 85 | 1009.9 |
| 20260505163336 | 26 | 163 | 3.2 | 12.9 | 0.00 | 0.00 | 0.00 | 85 | 1009.8 |
| 20260505162328 | 26 | 157 | 3.2 | 17.7 | 0.00 | 0.00 | 0.00 | 85 | 1009.8 |
| 20260505161335 | 26 | 148 | 3.2 | 17.7 | 0.00 | 0.00 | 0.00 | 85 | 1009.6 |
| 20260505160338 | 25 | 179 | 4.8 | 12.9 | 0.00 | 0.00 | 0.00 | 86 | 1009.7 |
| 20260505153352 | 25 | 139 | 4.8 | 19.3 | 0.00 | 0.00 | 0.00 | 89 | 1009.5 |
| 20260505152355 | 25 | 126 | 3.2 | 8.0 | 0.00 | 0.00 | 0.00 | 88 | 1009.4 |
| 20260505151340 | 25 | 169 | 6.4 | 22.5 | 0.00 | 0.00 | 0.00 | 87 | 1009.5 |
| 20260505150343 | 25 | 158 | 3.2 | 14.5 | 0.00 | 0.00 | 0.00 | 88 | 1009.5 |
| 20260505140335 | 23 | 183 | 1.6 | 4.8 | 0.00 | 0.00 | 0.00 | 93 | 1009.2 |
| 20260505124350 | 21 | 127 | 3.2 | 8.0 | 0.00 | 0.00 | 0.00 | 94 | 1008.9 |
| 20260505123329 | 21 | 120 | 1.6 | 4.8 | 0.00 | 0.00 | 0.00 | 94 | 1009.2 |
| 20260505122338 | 21 | 125 | 0.0 | 4.8 | 0.00 | 0.00 | 0.00 | 94 | 1009.0 |
| 20260505121325 | 21 | 141 | 0.0 | 3.2 | 0.00 | 0.00 | 0.00 | 94 | 1009.0 |
| 20260505120337 | 21 | 127 | 0.0 | 4.8 | 0.00 | 0.00 | 0.00 | 94 | 1008.8 |
| 20260505115323 | 21 | 120 | 3.2 | 4.8 | 0.00 | 0.00 | 0.00 | 94 | 1008.7 |
| 20260505114330 | 20 | 133 | 1.6 | 6.4 | 0.00 | 0.00 | 0.00 | 94 | 1008.6 |
| 20260505113334 | 20 | 131 | 3.2 | 4.8 | 0.00 | 0.00 | 0.00 | 94 | 1008.5 |
| 20260505112343 | 20 | 130 | 3.2 | 4.8 | 0.00 | 0.00 | 0.00 | 94 | 1008.7 |
| 20260505111331 | 20 | 135 | 0.0 | 1.6 | 0.00 | 0.00 | 0.00 | 94 | 1008.7 |
| 20260505110335 | 20 | 128 | 1.6 | 3.2 | 0.00 | 0.00 | 0.00 | 94 | 1008.6 |
| 20260505101331 | 20 | 165 | 0.0 | 1.6 | 0.00 | 0.00 | 0.00 | 93 | 1008.7 |
| 20260505100334 | 20 | 165 | 0.0 | 3.2 | 0.00 | 0.00 | 0.00 | 93 | 1008.6 |
| 20260505095402 | 20 | 133 | 1.6 | 3.2 | 0.00 | 0.00 | 0.00 | 93 | 1008.6 |
| 20260505094328 | 20 | 152 | 0.0 | 0.0 | 0.00 | 0.00 | 0.00 | 93 | 1008.9 |
| 20260505093331 | 20 | 181 | 0.0 | 0.0 | 0.00 | 0.00 | 0.00 | 93 | 1008.9 |
| 20260505092341 | 20 | 133 | 0.0 | 0.0 | 0.00 | 0.00 | 0.00 | 93 | 1008.7 |
| 20260505091327 | 20 | 142 | 0.0 | 0.0 | 0.00 | 0.00 | 0.00 | 93 | 1008.9 |
| 20260505090326 | 20 | 142 | 0.0 | 0.0 | 0.00 | 0.00 | 0.00 | 92 | 1009.0 |
| 20260505085334 | 20 | 142 | 0.0 | 0.0 | 0.00 | 0.00 | 0.00 | 92 | 1009.1 |
| 20260505084342 | 20 | 142 | 0.0 | 0.0 | 0.00 | 0.00 | 0.00 | 92 | 1009.1 |
| 20260505083326 | 20 | 123 | 0.0 | 1.6 | 0.00 | 0.00 | 0.00 | 92 | 1009.2 |
| 20260505082337 | 20 | 123 | 1.6 | 3.2 | 0.00 | 0.00 | 0.00 | 92 | 1009.4 |
| 20260505081325 | 20 | 117 | 1.6 | 3.2 | 0.00 | 0.00 | 0.00 | 91 | 1009.4 |
| 20260505080330 | 20 | 109 | 0.0 | 1.6 | 0.00 | 0.00 | 0.00 | 91 | 1009.6 |
| 20260505075338 | 20 | 147 | 0.0 | 0.0 | 0.00 | 0.00 | 0.00 | 91 | 1009.6 |
| 20260505074325 | 20 | 168 | 0.0 | 3.2 | 0.00 | 0.00 | 0.00 | 91 | 1009.6 |
| 20260505073328 | 20 | 142 | 0.0 | 3.2 | 0.00 | 0.00 | 0.00 | 91 | 1009.6 |
| 20260505072356 | 20 | 163 | 0.0 | 3.2 | 0.00 | 0.00 | 0.00 | 90 | 1009.8 |
| 20260505071346 | 20 | 139 | 0.0 | 3.2 | 0.00 | 0.00 | 0.00 | 90 | 1009.8 |
| 20260505070329 | 20 | 138 | 3.2 | 6.4 | 0.00 | 0.00 | 0.00 | 90 | 1009.9 |
| 20260505065339 | 20 | 139 | 1.6 | 4.8 | 0.00 | 0.00 | 0.00 | 90 | 1009.9 |
| 20260505064328 | 20 | 136 | 0.0 | 6.4 | 0.00 | 0.00 | 0.00 | 89 | 1010.1 |
| 20260505063351 | 20 | 146 | 3.2 | 4.8 | 0.00 | 0.00 | 0.00 | 89 | 1010.2 |
| 20260505062336 | 21 | 172 | 1.6 | 4.8 | 0.00 | 0.00 | 0.00 | 89 | 1010.3 |
| 20260505061324 | 21 | 141 | 3.2 | 8.0 | 0.00 | 0.00 | 0.00 | 88 | 1010.3 |
| 20260505060328 | 21 | 140 | 3.2 | 8.0 | 0.00 | 0.00 | 0.00 | 88 | 1010.2 |